SL-14 DEB, 45275

Orbit data source: Space-Track

SL-14 DEB, 45275 is space debris in LEO originally from a launch on Thu, 15 Aug 1991 UTC launched from the Plesetsk Missile And Space Complex (PKMTR). Debris objects in space refer to the collection of defunct objects orbiting the Earth. Examples of debris include non-operational satellites, rocket bodies, and fragments generated from explosions, collisions, or faulty payload assembly.

Loading next visibility...
Identifier
45275, 1991-056M
Orbit
LEO
Country
Flag of CISCIS
Related business
Manufacturer
Unknown
Mission
Spacecraft
Bus & Motor
Unknown
Mass
Unknown
Launch date (UTC)
1991-08-15 (34 years ago)
Launch vehicle
Unknown
Launch site
Plesetsk Missile And Space Complex (PKMTR)
Object type
Payload
Rocket body
Debris
Shape & HBR
Unknown shape, 0.2 m
Radar Cross Section
Small (<0.1 m²)

Expand to show TLE details & history
Last TLE update: 12 hours ago

TLE from 12 hours ago
0 SL-14 DEB
1 45275U 91056M   26035.56889774  .00000106  00000-0  22538-3 0  9994
2 45275  82.5819 225.2562 0028573 298.3749  61.4496 13.22341802288373
Epoch: 2026-02-04T13:39Z
TLE epoch observation values (Epoch: 2026-02-04T13:39:12.764Z)
Latitude
-0.00005°
Longitude
-114.28059°
Altitude
1,168.334 km
Speed
7.274 km/s
True Right ascension
15h 01m 01s
True Declination
0° 00' 00"
Sunlit
Object was in daylight at epoch
Visualization orbit readout
Latitude
Unknown
Longitude
Unknown
Altitude
Unknown
Speed
Unknown
Apparent Right ascension
Unknown
Apparent Declination
Unknown
Sunlit
N/A
Visualization observer readout
Local Sidereal Time
03:54:47
Azimuth
Unknown
Elevation
Unknown
Doppler factor
Unknown
Orbital elements
Apogee altitude
1,194.6 km
Perigee altitude
1,151.448 km
Semi-major axis
7,551.161 km
Eccentricity
0.00286
Inclination
82.5819°
RAAN
225.2562°
Arg. of periapsis
298.3749°
True anomaly
61.7377°
Mean anomaly
61.4496°
Eccentric anomaly
61.5936°
Mean motion
3.30767 °/min
Orbital period
108.84 mins
BSTAR
0.00022538
Loading maneuver chart data...
Computing Atmospheric mass density...
Loading historical data...
Loading historical data...
Loading historical data...
Loading historical data...
Loading historical data...
Loading historical data...
Loading historical data...

Documentation

Showing up to 5 results
|